Weather in Almanchikovo

Russia / Chuvash Republic     54°58′54″N   47°46′19″E
temp.,
°C
wind,
m/s
gust,
m/s
humid.,
%
clouds,
%
prec.,
mm/h
press.,
hPa
HPBL,
m
25 june, sat
sat2500:00+14n22815 0.0 101215
03:00+13nnw34805 0.0 101362
06:00+17nnw36765 0.0 1013172
09:00+21nnw68629 0.0 1014711
12:00+24nnw695357 0.0 10131882
15:00+24nnw79561 0.0 10132106
18:00+21n510633 0.0 1013486
21:00+17nnw337775 0.0 101429
26 june, sun
sun2600:00+15nw22800 0.0 101621
03:00+13nnw48840 0.0 1017140
06:00+15n511740 0.0 1018379
09:00+17n69530 0.0 1019974
12:00+20nnw69480 0.0 10191569
15:00+21n79465 0.0 10181744
18:00+19n48615 0.0 1019459
21:00+14n22770 0.0 101911
27 june, mon
mon2700:00+13w22790 0.0 102011
03:00+12w33800 0.0 101929
06:00+16wsw3874100 0.0 1018196
09:00+20wsw6107167 0.4 1017496
12:00+26wnw8116318 0.8 10141435
15:00+26wnw79660 1.8 10131170
18:00+20ene238898 3.4 1014107
21:00+16nne49870 3.6 1016237
28 june, tue
tue2800:00+11n49880 0.0 1017169
03:00+9n37890 0.0 1018137
06:00+11n46824 0.0 1019274
09:00+15nne59605 0.0 10191513
12:00+16n68505 0.1 10201913
15:00+16n674819 0.1 10201913
18:00+15n47595 0.0 10211456
21:00+10n11735 0.0 102110
29 june, wed
wed2900:00+9nw33775 0.0 102142
03:00+8nw48730 0.0 1022141
06:00+11nnw48695 0.0 1022282
09:00+15n57525 0.0 1022922
12:00+18n56485 0.0 10221407
15:00+19n57435 0.0 10211730
18:00+18nnw365962 0.0 1020336
21:00+12nw33775 0.0 102036